Regional Weather Roundup
Issued by NWS

Home | Current Version | Previous Version | Graphics & Text | Print | Product List | Glossary On
Versions: 1 2 3 4 5 6 7 8 9 10 11 12 13 14 15 16 17 18 19 20 21 22 23 24 25 26 27 28 29 30 31 32 33 34 35 36 37 38 39 40 41 42 43 44 45 46 47 48 49 50
000
ASUS43 KLOT 181307
RWRIL

ILLINOIS REGIONAL WEATHER ROUNDUP
NATIONAL WEATHER SERVICE CHICAGO/ROMEOVILLE IL
700 AM CST WED JAN 18 2017

NOTE: "FAIR" INDICATES FEW OR NO CLOUDS BELOW 12,000 FEET WITH NO
SIGNIFICANT WEATHER AND/OR OBSTRUCTIONS TO VISIBILITY.

* THESE STATIONS ARE NOT UNDER NWS QUALITY CONTROL. THEY ALSO MAY NOT
  REPORT WEATHER SUCH AS PRECIPITATION OR FOG.

ILZ001-002-007-009-015-016-024-181400-
NORTHWEST ILLINOIS

CITY           SKY/WX    TMP DP  RH WIND       PRES   REMARKS
MOLINE         CLOUDY    33  29  85 W9        30.13R WCI  25
STERLING*      CLOUDY    33  32  96 W14       30.14R FOG     WCI  23
SAVANNA*       CLOUDY    33  32  97 SW9       30.13R FOG     WCI  25
$$

ILZ003-004-008-010-011-017-018-181400-
NORTH CENTRAL ILLINOIS

CITY           SKY/WX    TMP DP  RH WIND       PRES   REMARKS
ROCKFORD       DRIZZLE   33  31  92 W12       30.13R FOG     WCI  24
FREEPORT*      CLOUDY    32  32 100 W6        30.13R FOG     WCI  26
ROCHELLE*      CLOUDY    32  32  99 W9        30.12S FOG     WCI  24
DE KALB*       FOG       32  32 100 W13       30.12R VSB 1   WCI  22
$$

ILZ005-006-012>014-019>023-181400-
NORTHEAST ILLINOIS

CITY           SKY/WX    TMP DP  RH WIND       PRES   REMARKS
CHICAGO-OHARE  DRIZZLE   35  33  92 W12       30.10R FOG     WCI  27
CHICAGO-MIDWAY CLOUDY    33  32  96 W10       30.12R FOG     WCI  25
AURORA         CLOUDY    34  32  92 W13       30.13R FOG     WCI  25
LANSING*       CLOUDY    33  33 100 W9        30.13R FOG     WCI  26
JOLIET*        CLOUDY    35  34  96 W6        30.15R WCI  30
WAUKEGAN       CLOUDY    35  33  92 VRB6      30.08R FOG     WCI  30
DUPAGE AIRPORT CLOUDY    33  30  88 W16       30.11R WCI  23
KANKAKEE*      CLOUDY    33  32  96 W9        30.16R WCI  25
WHEELING       CLOUDY    35  32  88 W8        30.11R WCI  29
MORRIS*        CLOUDY    33  32  96 W12       30.14R WCI  24
ROMEOVILLE*    CLOUDY    33  33 100 W8        30.13R WCI  26
NORTHERLY ISL    N/A     35  32  88 W8          N/A  WCI  29
$$

LMZ740>746-181400-
SOUTHERN LAKE MICHIGAN

STATION/POSITION SKY/WX   TEMP    WIND        PRES    VSBY  WAVE
                          AIR SEA DIR/SP/G                  HT/PER
                          (F)     (DEG/KT/KT) (MB)    (MI)  (FT/S)
HARRISON CRIB              36     270/ 12/ 13   N/A
BURNHAM HARBOR             35     270/  9/ 14   N/A
CALUMET HARBOR             35     240/  7/ 11 1019.4R
BURNS HARBOR               34     270/ 11/ 13 1020.7R
$$

ILZ025>027-034>036-040-047-049-050-058-095>099-181400-
WEST-CENTRAL ILLINOIS

CITY           SKY/WX    TMP DP  RH WIND       PRES   REMARKS
QUINCY         CLOUDY    34  32  92 SW6       30.17S FOG     WCI  29
GALESBURG*     CLOUDY    32  30  94 CALM      30.14S
MACOMB*        CLOUDY    32  31  96 SW5       30.17S WCI  27
JACKSONVILLE*  CLOUDY    34  30  87 W7        30.19R WCI  28
PITTSFIELD*    CLOUDY    35  32  89 SW7       30.20S WCI  29
$$

ILZ028>032-037-038-041>044-048-051>054-059>061-181400-
CENTRAL ILLINOIS

CITY           SKY/WX    TMP DP  RH WIND       PRES   REMARKS
PONTIAC        CLOUDY    35  35 100 W8        30.17R FOG     WCI  28
BLOOMINGTON    CLOUDY    34  33  96 NW12      30.16R WCI  25
DECATUR        CLOUDY    36  35  96 W7        30.18R WCI  30
PEORIA         CLOUDY    35  33  92 W6        30.16S WCI  30
LACON*         CLOUDY    35  34  97 W9        30.16R WCI  27
LINCOLN*       CLOUDY    37  36  96 CALM      30.17S
SPRINGFIELD    CLOUDY    37  32  82 W7        30.19R WCI  32
TAYLORVILLE    CLOUDY    35  32  89 W7        30.20R WCI  29
$$

ILZ033-039-045-046-055>057-062-063-181400-
EAST-CENTRAL ILLINOIS

CITY           SKY/WX    TMP DP  RH WIND       PRES   REMARKS
CHAMPAIGN      CLOUDY    36  33  89 W15       30.18R WCI  27
RANTOUL*       CLOUDY    36  35  96 W8        30.17R WCI  30
MATTOON        CLOUDY    36  34  92 NW7       30.18R WCI  30
PARIS*         CLOUDY    36  35  97 NW8       30.19R WCI  29
$$

ILZ079-100>102-181400-
SOUTHWEST ILLINOIS

CITY           SKY/WX    TMP DP  RH WIND       PRES   REMARKS
ALTON          CLOUDY    36  32  87 CALM      30.23S
BELLEVILLE     CLOUDY    37  34  87 CALM      30.20F
CAHOKIA*       CLOUDY    38  31  76 N5        30.21F WCI  34
SPARTA*        CLOUDY    38  33  83 W3        30.24R
$$

ILZ064>066-069>071-074>076-080>082-084>086-088>090-092>094-181400-
SOUTH-CENTRAL ILLINOIS

CITY           SKY/WX    TMP DP  RH WIND       PRES   REMARKS
CARBONDALE     CLOUDY    39  36  89 W5        30.24R
CAIRO*         CLOUDY    40  37  88 N7        30.22F
EFFINGHAM*     CLOUDY    37  37  97 SW7       30.22S WCI  32
MT. VERNON     CLOUDY    39  33  79 CALM      30.23R
CENTRALIA*     CLOUDY    39  35  85 W3        30.22S
SALEM*         CLOUDY    39  34  84 W6        30.22R WCI  35
METROPOLIS*    CLOUDY    41  37  86 CALM      30.24F
$$

ILZ067-068-072-073-078-083-087-091-181400-
SOUTHEAST ILLINOIS

CITY           SKY/WX    TMP DP  RH WIND       PRES   REMARKS
LAWRENCEVILLE  CLOUDY    39  37  92 NW3       30.21S
FLORA*         CLOUDY    39  37  90 W5        30.23R
FAIRFIELD*     CLOUDY    39  36  87 CALM      30.22R
HARRISBURG*    CLOUDY    40  36  86 N6        30.24R
ROBINSON*      CLOUDY    37  35  92 W7        30.22R WCI  32
CARMI*         CLOUDY    39  37  90 NW6       30.22R WCI  35
$$

ABBREVIATIONS USED IN REMARKS
   TC - TEMPERATURE IN CELSIUS
  WCI - WIND CHILL INDEX
   HX - HEAT INDEX
  VSB - VISIBILITY
$$




USA.gov is the U.S. government's official web portal to all federal, state and local government web resources and services.